View from above orbital plane
|
View from above satellite
|
Ground track
|
The orbit data is extracted from the following two-line orbital elements,
1 45873U 20046A 21059.80755955 0.00002800 00000-0 23093-3 0 03
2 45873 53.9748 16.0069 0009390 163.9729 196.0270 14.98543920 05
Epoch (UTC): | 28 February 2021 19:22:53 |
Eccentricity: | 0.0009390 |
inclination: | 53.9748° |
perigee height: | 565 km |
apogee height: | 578 km |
right ascension of ascending node: | 16.0069° |
argument of perigee: | 163.9729° |
revolutions per day: | 14.98543920 |
mean anomaly at epoch: | 196.0270° |
orbit number at epoch: | 0 |
The dashed part of the orbit path shows where the satellite is in the earth's shadow,
|
|